Weather History for KLWB - April, 2013

Change the Weather History Date:

Friday, April 12, 2013

  Actual Average Record
Temperature  
Mean Temperature 54 °F 49 °F  
Max Temperature 64 °F 62 °F 79 °F (1977)
Min Temperature 42 °F 35 °F 18 °F (1989)
Degree Days  
Heating Degree Days 11    
Month to date heating degree days  
Since 1 July heating degree days  
Cooling Degree Days 0    
Month to date cooling degree days  
Year to date cooling degree days  
Growing Degree Days 4 (Base 50)    
Moisture  
Dew Point 42 °F    
Average Humidity 65    
Maximum Humidity 100    
Minimum Humidity 30    
Precipitation  
Precipitation 0.70 in - 0.57 in (2013)
Snow  
Snow 0.00 in - - ()
Month to date snowfall  
Since 1 July snowfall  
Snow Depth -    
Sea Level Pressure  
Sea Level Pressure 29.74 in    
Wind  
Wind Speed 9 mph (WSW)    
Max Wind Speed 22 mph    
Max Gust Speed 31 mph    
Visibility 9 miles    
Events Rain , Thunderstorm    
T = Trace of Precipitation, MM = Missing Value Source: NWS Daily Summary

Daily Weather History Graph

Daily Weather History Graph

Search for Another Location

Airport or City:

Trip Planner

Search our weather history database for the weather conditions in past years. The results will help you decide how hot, cold, wet, or windy it might be!

Date:

Astronomy

Apr. 12, 2013 Rise Set
Actual Time 6:50 AM EDT 7:54 PM EDT
Civil Twilight 6:23 AM EDT 8:21 PM EDT
Nautical Twilight 5:51 AM EDT 8:54 PM EDT
Astronomical Twilight 5:17 AM EDT 9:27 PM EDT
Moon 8:01 AM EDT (4/12) 10:21 PM EDT (4/12)
Length of Visible Light 13h 58m
Length of Day
13h 04m
Waxing Crescent, 5% of the Moon is Illuminated
Apr 12
Waxing Crescent
Apr 18
First Quarter
Apr 25
Full
May 2
Last Quarter
May 9
New

Hourly Weather History & Observations

Time (EDT) Temp. Windchill Dew Point Humidity Pressure Visibility Wind Dir Wind Speed Gust Speed Precip Events Conditions
12:15 AM 64.4 °F - 50.0 °F 59% 29.75 in 10.0 mi SSW 11.5 mph 18.4 mph N/A   Mostly Cloudy
12:35 AM 64.4 °F - 51.8 °F 64% 29.74 in 10.0 mi South 10.4 mph - N/A   Overcast
12:55 AM 60.8 °F - 53.6 °F 77% 29.75 in 3.0 mi SSW 11.5 mph 19.6 mph 0.11 in Rain Rain
1:15 AM 59.0 °F - 55.4 °F 88% 29.74 in 10.0 mi South 4.6 mph - 0.01 in Rain Light Rain
1:35 AM 59.0 °F - 55.4 °F 88% 29.72 in 7.0 mi South 5.8 mph - 0.01 in Rain Light Rain
1:55 AM 59.0 °F - 55.4 °F 88% 29.71 in 10.0 mi South 8.1 mph - 0.02 in   Overcast
2:15 AM 59.0 °F - 53.6 °F 82% 29.70 in 10.0 mi South 5.8 mph - N/A Rain Light Rain
2:35 AM 59.0 °F - 55.4 °F 88% 29.70 in 10.0 mi WSW 9.2 mph - N/A Rain Light Rain
2:55 AM 55.4 °F - 53.6 °F 94% 29.70 in 3.0 mi SW 13.8 mph 26.5 mph 0.23 in Rain , Thunderstorm Heavy Thunderstorms and Rain
3:15 AM 55.4 °F - 53.6 °F 94% 29.71 in 5.0 mi WSW 15.0 mph 26.5 mph 0.06 in Rain , Thunderstorm Rain
3:35 AM 55.4 °F - 51.8 °F 88% 29.71 in 7.0 mi SW 10.4 mph 18.4 mph 0.12 in Rain Rain
3:55 AM 53.6 °F - 51.8 °F 94% 29.72 in 7.0 mi SW 9.2 mph - 0.18 in Rain Heavy Rain
4:15 AM 53.6 °F - 51.8 °F 94% 29.72 in 10.0 mi SW 5.8 mph - 0.04 in Rain Rain
4:35 AM 53.6 °F - 51.8 °F 94% 29.70 in 10.0 mi South 3.5 mph - 0.07 in Rain Rain
4:55 AM 53.6 °F - 51.8 °F 94% 29.69 in 7.0 mi SSE 3.5 mph - 0.12 in Rain Rain
5:15 AM 53.6 °F - 50.0 °F 88% 29.67 in 10.0 mi Calm Calm - 0.01 in Rain Light Rain
5:35 AM 53.6 °F - 51.8 °F 94% 29.67 in 10.0 mi Calm Calm - 0.01 in Rain Light Rain
5:55 AM 53.6 °F - 50.0 °F 88% 29.66 in 10.0 mi Calm Calm - 0.02 in   Overcast
6:15 AM 53.6 °F - 50.0 °F 88% 29.66 in 10.0 mi Calm Calm - N/A   Mostly Cloudy
6:35 AM 51.8 °F - 50.0 °F 94% 29.66 in 10.0 mi Calm Calm - N/A   Mostly Cloudy
6:55 AM 51.8 °F - 50.0 °F 94% 29.66 in 10.0 mi Calm Calm - N/A   Scattered Clouds
7:15 AM 51.8 °F - 50.0 °F 94% 29.67 in 5.0 mi North 4.6 mph - N/A   Scattered Clouds
7:35 AM 51.8 °F - 50.0 °F 94% 29.67 in 7.0 mi Calm Calm - N/A   Mostly Cloudy
7:55 AM 51.8 °F - 51.8 °F 100% 29.68 in 10.0 mi North 3.5 mph - N/A   Overcast
8:15 AM 53.6 °F - 51.8 °F 94% 29.68 in 5.0 mi Calm Calm - N/A Rain Rain
8:35 AM 53.6 °F - 51.8 °F 94% 29.69 in 10.0 mi Calm Calm - N/A Rain Light Rain
8:55 AM 53.6 °F - 51.8 °F 94% 29.69 in 7.0 mi Calm Calm - 0.02 in   Light Drizzle
9:15 AM 55.4 °F - 51.8 °F 88% 29.70 in 10.0 mi SW 4.6 mph - N/A   Overcast
9:35 AM 55.4 °F - 51.8 °F 88% 29.71 in 10.0 mi SW 9.2 mph - N/A   Overcast
9:55 AM 55.4 °F - 51.8 °F 88% 29.71 in 10.0 mi SW 10.4 mph - N/A   Light Drizzle
10:15 AM 55.4 °F - 51.8 °F 88% 29.72 in 10.0 mi SW 11.5 mph - N/A   Overcast
10:55 AM 55.4 °F - 51.8 °F 88% 29.73 in 10.0 mi SW 6.9 mph - N/A   Overcast
11:15 AM 57.2 °F - 50.0 °F 77% 29.74 in 10.0 mi WSW 10.4 mph 19.6 mph N/A   Overcast
11:35 AM 59.0 °F - 50.0 °F 72% 29.74 in 10.0 mi West 10.4 mph - N/A   Overcast
11:55 AM 59.0 °F - 50.0 °F 72% 29.75 in 10.0 mi WSW 12.7 mph 19.6 mph N/A   Overcast
12:15 PM 59.0 °F - 44.6 °F 59% 29.75 in 10.0 mi West 13.8 mph 23.0 mph N/A   Overcast
12:35 PM 59.0 °F - 44.6 °F 59% 29.75 in 10.0 mi WSW 13.8 mph 24.2 mph N/A   Mostly Cloudy
12:55 PM 60.8 °F - 42.8 °F 52% 29.74 in 10.0 mi WSW 15.0 mph 29.9 mph N/A   Mostly Cloudy
1:15 PM 62.6 °F - 42.8 °F 48% 29.74 in 10.0 mi WSW 16.1 mph 25.3 mph N/A   Mostly Cloudy
1:35 PM 60.8 °F - 42.8 °F 52% 29.73 in 10.0 mi WSW 16.1 mph 23.0 mph N/A   Scattered Clouds
1:55 PM 62.6 °F - 41.0 °F 45% 29.73 in 10.0 mi WSW 16.1 mph 27.6 mph N/A   Mostly Cloudy
2:15 PM 62.6 °F - 37.4 °F 39% 29.74 in 10.0 mi WSW 21.9 mph 31.1 mph N/A   Scattered Clouds
2:35 PM 62.6 °F - 37.4 °F 39% 29.74 in 10.0 mi West 16.1 mph 25.3 mph N/A   Clear
2:55 PM 62.6 °F - 37.4 °F 39% 29.73 in 10.0 mi West 18.4 mph 23.0 mph N/A   Clear
3:15 PM 60.8 °F - 37.4 °F 42% 29.73 in 10.0 mi WNW 8.1 mph 18.4 mph N/A   Scattered Clouds
3:35 PM 62.6 °F - 37.4 °F 39% 29.73 in 10.0 mi West 12.7 mph 19.6 mph N/A   Mostly Cloudy
3:55 PM 62.6 °F - 33.8 °F 34% 29.73 in 10.0 mi West 15.0 mph 18.4 mph N/A   Scattered Clouds
4:15 PM 62.6 °F - 32.0 °F 32% 29.72 in 10.0 mi West 12.7 mph 19.6 mph N/A   Scattered Clouds
4:35 PM 62.6 °F - 32.0 °F 32% 29.73 in 10.0 mi West 16.1 mph 20.7 mph N/A   Clear
4:55 PM 62.6 °F - 32.0 °F 32% 29.74 in 10.0 mi WSW 17.3 mph 21.9 mph N/A   Clear
5:15 PM 62.6 °F - 30.2 °F 30% 29.73 in 10.0 mi WSW 18.4 mph 24.2 mph N/A   Clear
5:35 PM 62.6 °F - 30.2 °F 30% 29.74 in 10.0 mi West 12.7 mph 19.6 mph N/A   Clear
5:55 PM 60.8 °F - 32.0 °F 34% 29.75 in 10.0 mi WSW 12.7 mph 19.6 mph N/A   Clear
6:15 PM 59.0 °F - 32.0 °F 36% 29.76 in 10.0 mi West 10.4 mph 23.0 mph N/A   Clear
6:35 PM 59.0 °F - 32.0 °F 36% 29.76 in 10.0 mi West 10.4 mph - N/A   Clear
6:55 PM 59.0 °F - 28.4 °F 31% 29.77 in 10.0 mi West 18.4 mph 21.9 mph N/A   Clear
7:15 PM 55.4 °F - 28.4 °F 36% 29.77 in 10.0 mi West 10.4 mph 19.6 mph N/A   Clear
7:35 PM 55.4 °F - 28.4 °F 36% 29.77 in 10.0 mi West 12.7 mph 18.4 mph N/A   Clear
7:55 PM 53.6 °F - 30.2 °F 41% 29.78 in 10.0 mi West 6.9 mph - N/A   Clear
8:15 PM 53.6 °F - 32.0 °F 44% 29.79 in 10.0 mi NW 8.1 mph - N/A   Clear
8:35 PM 51.8 °F - 30.2 °F 44% 29.80 in 10.0 mi WNW 4.6 mph - N/A   Clear
8:55 PM 51.8 °F - 30.2 °F 44% 29.81 in 10.0 mi WNW 5.8 mph - N/A   Clear
9:15 PM 51.8 °F - 30.2 °F 44% 29.82 in 10.0 mi WNW 5.8 mph - N/A   Clear
9:35 PM 50.0 °F - 30.2 °F 47% 29.83 in 10.0 mi WNW 5.8 mph - N/A   Clear
9:55 PM 50.0 °F - 30.2 °F 47% 29.84 in 10.0 mi NNW 8.1 mph - N/A   Clear
10:15 PM 48.2 °F - 28.4 °F 46% 29.86 in 10.0 mi NNW 9.2 mph 18.4 mph N/A   Clear
10:35 PM 46.4 °F 41.5 °F 28.4 °F 50% 29.88 in 10.0 mi NNW 10.4 mph 16.1 mph N/A   Scattered Clouds
10:55 PM 46.4 °F 40.1 °F 28.4 °F 50% 29.90 in 10.0 mi North 15.0 mph 20.7 mph N/A   Mostly Cloudy
11:15 PM 44.6 °F 40.2 °F 28.4 °F 53% 29.90 in 10.0 mi NNW 8.1 mph - N/A   Scattered Clouds
11:35 PM 44.6 °F 41.4 °F 28.4 °F 53% 29.90 in 10.0 mi North 5.8 mph - N/A   Clear
11:55 PM 42.8 °F - 28.4 °F 57% 29.91 in 10.0 mi Calm Calm - N/A   Clear